Location: Montclair
(37.8322°N, 122.2092°W)
Time: 13:01:27
(UTC+00:00)

Cosmos 2333 Rocket - Pass Details

Date: 08 September 2024
Orbit: 840 x 862 km, 70.8° (Epoch: 11 October)

Event Time Altitude Azimuth Distance (km) Brightness Sun altitude
Rises 12:42:46 0° 336° (NNW) 3,434 5.3 -12.9°
Reaches altitude 10° 12:45:14 10° 335° (NNW) 2,491 4.6 -12.4°
Maximum altitude 12:50:58 81° 250° (WSW) 866 2.2 -11.3°
Drops below altitude 10° 12:56:37 10° 163° (SSE) 2,460 4.7 -10.3°
Sets 12:59:03 0° 163° (SSE) 3,389 5.4 -9.8°
